Location: Caltech
(34.1382°N, 118.1253°W)
Time: 05:20:21
(UTC-07:00)

ALOS - Visible Passes

Search period start: 28 July 2014 00:00
Search period end: 07 August 2014 00:00
Orbit: 687 x 691 km, 98.0° (Epoch: 28 July)

Date Brightness Start Highest point End Pass type
(mag) Time Alt. Az. Time Alt. Az. Time Alt. Az.
28 Jul 4.1 20:36:11 10° E 20:38:46 15° ENE 20:41:21 10° NNE visible
28 Jul 3.0 22:14:27 36° SW 22:15:49 46° W 22:20:19 10° NNW visible
29 Jul 2.9 21:15:00 25° ESE 21:17:05 37° ENE 21:21:23 10° N visible
29 Jul 4.5 22:53:37 16° WSW 22:54:40 17° W 22:57:45 10° NW visible
30 Jul 2.3 21:54:10 44° S 21:55:37 80° WSW 22:00:19 10° NNW visible
31 Jul 3.6 20:54:43 16° ESE 20:57:03 23° ENE 21:00:43 10° NNE visible
31 Jul 3.8 22:33:20 26° WSW 22:34:22 29° W 22:38:25 10° NW visible
01 Aug 2.3 21:33:53 38° SE 21:35:29 61° ENE 21:40:06 10° N visible
01 Aug 5.0 23:12:35 10° W 23:13:18 10° W 23:14:02 10° W visible
02 Aug 4.1 20:34:36 10° E 20:37:05 14° ENE 20:39:34 10° NE visible
02 Aug 3.0 22:13:03 40° SW 22:14:07 48° W 22:18:39 10° NNW visible
03 Aug 3.0 21:13:36 26° ESE 21:15:23 36° ENE 21:19:40 10° N visible
03 Aug 4.4 22:52:13 17° WSW 22:52:57 18° W 22:56:07 10° NW visible
04 Aug 2.2 21:52:47 52° S 21:53:55 82° WSW 21:58:37 10° NNW visible
05 Aug 3.6 20:53:20 17° ESE 20:55:21 22° ENE 20:58:58 10° NNE visible
05 Aug 3.7 22:31:57 28° WSW 22:32:39 30° W 22:36:44 10° NW visible
06 Aug 2.3 21:32:31 43° SE 21:33:46 59° ENE 21:38:22 10° N visible
06 Aug 5.0 23:11:07 11° W 23:11:35 11° W 23:12:41 10° WNW visible
